Home   Weather   Melbourne   Past weeks
Flag for Australia

Past Weather in Melbourne, Victoria, Australia — Yesterday and Last 2 Weeks

Now
61 °F

Passing clouds.


Feels Like: 61 °F
Forecast: 75 / 59 °F
Wind: 7 mph from Southeast

Location: Melbourne Airport

Current Time: Jan 20, 2019 at 1:40:05 am

Latest Report: Jan 20, 2019 at 12:30 am


Visibility: N/A

Pressure: 30.18 "Hg

Humidity: 77%

Dew Point: 54 °F

Location of MelbourneLocation

Past Weather in Melbourne — Graph

°F

Melbourne Temperature Yesterday

Maximum temperature yesterday: 75 °F (at 3:30 pm)
Minimum temperature yesterday: 55 °F (at 7:00 am)
Average temperature yesterday: 65 °F

High & Low Weather Summary for the Past Weeks

 TemperatureHumidityPressure
High100 °F (Jan 14, 3:00 pm)94% (Jan 15, 5:00 am)30.18 "Hg (Jan 15, 5:00 am)
Low48 °F (Jan 10, 6:00 am)18% (Jan 12, 5:00 am)29.71 "Hg (Jan 17, 6:30 am)
Average69 °F59%29.95 "Hg
* Reported Jan 5 12:00 am — Jan 20 12:00 am, Melbourne. Weather by CustomWeather, © 2019

Note: Actual official high and low records may vary slightly from our data, if they occured in-between our weather recording intervals... More about our weather records

Advertising

Melbourne Weather History for the Previous 24 Hours

Scroll right to see more
 ConditionsComfort  
Time TempWeatherWind HumidityBarometerVisibility
12:00 am
Sun, Jan 20
63 °FPassing clouds.9 mph73%30.18 "HgN/A
11:30 pm
Sat, Jan 19
63 °FPassing clouds.12 mph73%30.18 "HgN/A
11:00 pm63 °FPassing clouds.10 mph68%30.18 "HgN/A
10:30 pm63 °FPassing clouds.13 mph68%30.18 "HgN/A
10:00 pm63 °FClear.15 mph68%30.18 "Hg10 mi
9:30 pm63 °FClear.13 mph68%30.18 "Hg10 mi
9:00 pm63 °FClear.14 mph64%30.15 "Hg10 mi
8:30 pm64 °FSunny.13 mph56%30.15 "Hg10 mi
8:00 pm66 °FSunny.13 mph56%30.15 "Hg10 mi
7:30 pm68 °FSunny.14 mph53%30.15 "Hg10 mi
7:00 pm68 °FSunny.16 mph53%30.15 "Hg10 mi
6:30 pm68 °FSunny.16 mph53%30.12 "Hg10 mi
6:00 pm70 °FSunny.18 mph50%30.12 "Hg10 mi
5:30 pm72 °FSunny.18 mph47%30.12 "Hg10 mi
5:00 pm72 °FSunny.17 mph47%30.12 "Hg10 mi
4:30 pm73 °FSunny.15 mph41%30.12 "Hg10 mi
4:00 pm73 °FSunny.16 mph38%30.15 "Hg10 mi
3:30 pm75 °FSunny.17 mph39%30.15 "Hg10 mi
3:00 pm73 °FSunny.15 mph41%30.15 "Hg10 mi
2:30 pm73 °FSunny.15 mph41%30.15 "Hg10 mi
2:00 pm73 °FSunny.14 mph38%30.15 "Hg10 mi
1:30 pm73 °FPassing clouds.15 mph38%30.15 "HgN/A
1:00 pm73 °FPassing clouds.13 mph38%30.15 "HgN/A
12:30 pm72 °FPassing clouds.10 mph36%30.15 "HgN/A
12:00 pm72 °FPassing clouds.7 mph38%30.15 "HgN/A
11:00 am70 °FPassing clouds.10 mph40%30.15 "HgN/A
10:30 am68 °FPassing clouds.8 mph43%30.15 "HgN/A
10:00 am68 °FPassing clouds.13 mph43%30.15 "HgN/A
9:30 am66 °FPassing clouds.10 mph52%30.15 "HgN/A
9:00 am64 °FPassing clouds.10 mph56%30.15 "HgN/A
8:30 am63 °FPassing clouds.9 mph59%30.12 "HgN/A
8:00 am59 °FPassing clouds.7 mph72%30.12 "HgN/A
7:30 am57 °FPassing clouds.7 mph77%30.09 "HgN/A
7:00 am55 °FPassing clouds.7 mph88%30.09 "HgN/A
6:30 am57 °FScattered clouds.8 mph77%30.09 "HgN/A
6:00 am57 °FPassing clouds.8 mph82%30.07 "HgN/A
5:30 am59 °FPassing clouds.9 mph77%30.07 "HgN/A
5:00 am59 °FPassing clouds.7 mph77%30.07 "HgN/A
4:30 am59 °FPassing clouds.8 mph77%30.04 "HgN/A
4:00 am59 °FPassing clouds.9 mph77%30.04 "HgN/A
3:30 am61 °FPassing clouds.10 mph77%30.04 "HgN/A
3:00 am61 °FPassing clouds.9 mph77%30.04 "HgN/A
2:30 am63 °FPassing clouds.8 mph77%30.04 "HgN/A
2:00 am63 °FPassing clouds.7 mph77%30.04 "HgN/A
1:30 am63 °FPassing clouds.6 mph77%30.04 "HgN/A
1:00 am63 °FPassing clouds.9 mph77%30.04 "HgN/A
Weather by CustomWeather, © 2019

See weather overview